Location: Unspecified
(48.8656°N, 0.0000°E)
Time: 16:57:04
(UTC+00:00)

Transit 4A - All Passes

Search period start: 19 June 2019 00:00
Search period end: 29 June 2019 00:00
Orbit: 862 x 983 km, 66.8° (Epoch: 18 June)

Date Brightness Start Highest point End Pass type
(mag) Time Alt. Az. Time Alt. Az. Time Alt. Az.
19 Jun - 08:34:32 10° S 08:40:37 53° ESE 08:46:50 10° NE daylight
19 Jun - 10:21:15 10° WSW 10:27:13 41° NW 10:33:18 10° NNE daylight
19 Jun - 12:11:09 10° WNW 12:15:26 18° NNW 12:19:45 10° NNE daylight
19 Jun - 14:00:33 10° NNW 14:04:31 17° N 14:08:28 10° NE daylight
19 Jun - 15:47:14 10° NNW 15:53:00 33° NE 15:58:39 10° E daylight
19 Jun - 17:33:34 10° NW 17:39:58 72° WSW 17:46:11 10° SSE daylight
19 Jun - 19:22:02 10° WNW 19:25:13 14° W 19:28:22 10° SW daylight
20 Jun - 07:01:18 10° SE 07:04:36 15° E 07:07:55 10° ENE daylight
20 Jun - 08:43:36 10° SSW 08:49:53 73° ESE 08:56:19 10° NE daylight
20 Jun - 10:31:10 10° W 10:36:52 33° NW 10:42:38 10° NNE daylight
20 Jun - 12:21:24 10° NW 12:25:21 17° N 12:29:19 10° NNE daylight
20 Jun - 14:10:07 10° NNW 14:14:26 18° NNE 14:18:42 10° ENE daylight
20 Jun - 15:56:34 10° NNW 16:02:38 42° NE 16:08:34 10° ESE daylight
20 Jun - 17:43:03 10° NW 17:49:13 52° WSW 17:55:14 10° S daylight
21 Jun - 07:08:59 10° SSE 07:13:35 22° ESE 07:18:15 10° ENE daylight
21 Jun - 08:52:54 10° SW 08:59:14 84° NW 09:05:43 10° NE daylight
21 Jun - 10:41:14 10° W 10:46:34 27° NNW 10:51:57 10° NNE daylight
21 Jun - 12:31:34 10° NW 12:35:18 16° N 12:39:03 10° NNE daylight
21 Jun - 14:19:35 10° NNW 14:24:18 21° NNE 14:28:57 10° ENE daylight
21 Jun - 16:05:53 10° NNW 16:12:11 54° NE 16:18:20 10° SE daylight
21 Jun - 17:52:37 10° NW 17:58:24 37° WSW 18:04:03 10° S daylight
22 Jun - 07:17:16 10° SSE 07:22:39 31° ESE 07:28:08 10° NE daylight
22 Jun - 09:02:22 10° SW 09:08:40 64° NW 09:15:05 10° NNE daylight
22 Jun - 10:51:24 10° WNW 10:56:20 23° NNW 11:01:19 10° NNE daylight
22 Jun - 12:41:35 10° NW 12:45:16 15° N 12:48:56 10° NE daylight
22 Jun - 14:28:59 10° NNW 14:34:07 24° NNE 14:39:10 10° E daylight
22 Jun - 16:15:13 10° NNW 16:21:40 71° NE 16:27:55 10° SE daylight
22 Jun - 18:02:22 10° NW 18:07:31 26° WSW 18:12:33 10° SSW daylight
23 Jun - 07:25:54 10° S 07:31:47 43° ESE 07:37:48 10° NE daylight
23 Jun - 09:12:02 10° WSW 09:18:10 49° NW 09:24:25 10° NNE daylight
23 Jun - 11:01:39 10° WNW 11:06:11 20° NNW 11:10:44 10° NNE daylight
23 Jun - 12:51:25 10° NNW 12:55:13 16° N 12:59:00 10° NE daylight
23 Jun - 14:38:20 10° NNW 14:43:52 29° NNE 14:49:17 10° E daylight
23 Jun - 16:24:36 10° NW 16:31:04 87° SW 16:37:19 10° SSE daylight
23 Jun - 18:12:24 10° WNW 18:16:32 18° WSW 18:20:37 10° SW daylight
24 Jun - 05:54:13 10° ESE 05:55:56 11° E 05:57:40 10° E daylight
24 Jun - 07:34:49 10° SSW 07:41:00 60° ESE 07:47:20 10° NE daylight
24 Jun - 09:21:52 10° WSW 09:27:45 38° NW 09:33:44 10° NNE daylight
24 Jun - 11:11:55 10° NW 11:16:04 17° NNW 11:20:14 10° NNE daylight
24 Jun - 13:01:04 10° NNW 13:05:09 17° NNE 13:09:12 10° NE daylight
24 Jun - 14:47:40 10° NNW 14:53:33 36° NE 14:59:18 10° ESE daylight
24 Jun - 16:34:02 10° NW 16:40:21 64° WSW 16:46:31 10° SSE daylight
24 Jun - 18:23:10 10° WNW 18:25:29 12° W 18:27:47 10° WSW daylight
25 Jun - 06:01:00 10° SE 06:04:53 17° ESE 06:08:48 10° ENE daylight
25 Jun - 07:43:58 10° SSW 07:50:18 81° ESE 07:56:46 10° NE daylight
25 Jun - 09:31:50 10° W 09:37:24 31° NW 09:43:03 10° NNE daylight
25 Jun - 11:22:08 10° NW 11:26:00 16° N 11:29:51 10° NNE daylight
25 Jun - 13:10:37 10° NNW 13:15:03 19° NNE 13:19:27 10° ENE daylight
25 Jun - 14:56:59 10° NNW 15:03:09 46° NE 15:09:10 10° ESE daylight
25 Jun - 16:43:33 10° NW 16:49:36 46° WSW 16:55:29 10° S daylight
26 Jun - 06:08:57 10° SSE 06:13:54 25° ESE 06:18:55 10° NE daylight
26 Jun - 07:53:20 10° SW 07:59:41 76° NW 08:06:10 10° NE daylight
26 Jun - 09:41:56 10° W 09:47:09 25° NNW 09:52:23 10° NNE daylight
26 Jun - 11:32:15 10° NW 11:35:57 15° N 11:39:38 10° NNE daylight
26 Jun - 13:20:03 10° NNW 13:24:55 22° NNE 13:29:42 10° ENE daylight
26 Jun - 15:06:19 10° NNW 15:12:41 60° NE 15:18:51 10° SE daylight
26 Jun - 16:53:11 10° NW 16:58:45 33° WSW 17:04:11 10° S daylight
27 Jun - 06:17:23 10° S 06:22:59 35° ESE 06:28:42 10° NE daylight
27 Jun - 08:02:53 10° SW 08:09:08 58° NW 08:15:30 10° NNE daylight
27 Jun - 09:52:08 10° WNW 09:56:56 21° NNW 10:01:46 10° NNE daylight
27 Jun - 11:42:12 10° NNW 11:45:55 15° N 11:49:36 10° NE daylight
27 Jun - 13:29:25 10° NNW 13:34:42 26° NNE 13:39:53 10° E daylight
27 Jun - 15:15:40 10° NW 15:22:07 79° NE 15:28:22 10° SE daylight
27 Jun - 17:03:00 10° WNW 17:07:50 23° WSW 17:12:33 10° SSW daylight
28 Jun - 06:26:08 10° S 06:32:10 49° ESE 06:38:18 10° NE daylight
28 Jun - 08:12:36 10° WSW 08:18:40 44° NW 08:24:50 10° NNE daylight
28 Jun - 10:02:24 10° WNW 10:06:48 19° NNW 10:11:12 10° NNE daylight
28 Jun - 11:51:59 10° NNW 11:55:52 16° N 11:59:43 10° NE daylight
28 Jun - 13:38:45 10° NNW 13:44:25 31° NE 13:49:58 10° E daylight
28 Jun - 15:25:04 10° NW 15:31:29 78° WSW 15:37:42 10° SSE daylight
28 Jun - 17:13:13 10° WNW 17:16:49 16° WSW 17:20:23 10° SW daylight
